[[{"header":{"parameterUnit":"m.s-1","parameterCategory":1,"la1":30.2991,"la2":30.254,"lo1":-89.0895,"lo2":-89.0444,"dy":0.0017,"dx":0.0017,"nx":28,"ny":28,"refTime":"2025-01-21T09:00:00:Z","depth":0,"parameterNumber":2,"parameterNumberName":"U-component_of_WINDS"},"data":[0,0,0,0,0,0,0,0,0,0,0,0,0,0,0,0,0,0,0,0,0,0,0,0,0,0,0,0,0,0,0,0,0,0,0,0,0,0,0,0,0,0,0,0,0,0,0,0,0,0,0,0,0,0,0,0,0,0,-3.0029,-3.0033,0,-3.0401,-3.0405,-3.0409,-3.0426,-3.0422,-3.0417,-3.0413,-3.0802,-3.0816,-3.083,0,0,0,0,0,0,0,0,0,0,0,0,0,-2.9339,-2.9351,-3.0028,-3.0033,-3.0038,-3.04,-3.0405,-3.041,-3.0427,-3.0422,-3.0416,-3.0411,-3.0797,-3.0814,-3.0831,0,0,0,0,0,0,0,0,0,0,0,0,0,-2.9667,-2.9355,-3.0028,-3.009,-3.0099,-3.0399,-3.0405,-3.0412,-3.0428,-3.0422,-3.0415,-3.0409,-3.0791,-3.0812,-3.0834,-3.1099,0,0,-3.09,-3.0909,0,0,0,0,0,0,0,0,-2.9649,-2.9693,-3.0076,-3.0086,-3.0097,-3.036,-3.0304,-3.0642,-3.043,-3.0303,-3.0413,-3.0406,-3.0661,-3.0693,-3.0777,-3.1118,-3.1134,-3.0902,-3.0915,-3.0924,-3.093,0,0,0,0,0,0,0,-2.9626,-2.9677,-3.0176,-3.0081,-3.0094,-3.0101,-3.014,-3.0368,-3.0515,-3.0314,-3.0316,-3.0359,-3.0665,-3.0756,-3.0786,-3.114,-3.0901,-3.092,-3.0934,-3.0942,-3.1718,-3.1726,0,0,0,0,0,0,-2.959,-2.9658,-3.0164,-3.0187,-2.9852,-3.0119,-3.0163,-3.0282,-3.0512,-3.0541,-3.0365,-3.0359,-3.0722,-3.0761,-3.08,-3.1128,-3.0924,-3.0944,-3.0957,-3.1711,-3.172,-3.1728,0,0,0,0,0,0,-2.9575,-2.9635,-3.0149,-2.9923,-2.9989,-3.0137,-3.0272,-3.0293,-3.0384,-3.055,-3.0577,-3.0431,-3.0719,-3.077,-3.1025,-3.1142,-3.0954,-3.0974,-3.1702,-3.1714,-3.1724,-3.1784,0,0,0,0,0,0,-2.9555,-2.963,-2.9731,-2.9925,-3.0001,-3.0366,-3.0279,-3.0305,-3.0421,-3.0417,-3.0619,-3.0647,-3.0717,-3.0992,-3.1046,-3.1168,-3.0991,-3.1692,-3.1707,-3.172,-3.1773,-3.1797,-3.1817,0,0,0,0,0,-2.9531,-2.9734,-2.9736,-2.9797,-3.013,-3.0373,-3.0416,-3.0491,-3.043,-3.0534,-3.0641,-3.064,-3.1119,-3.1018,-3.1079,-3.1209,-3.1685,-3.1703,-3.1719,-3.1763,-3.1792,-3.1816,0,0,0,0,0,0,-2.9553,-2.9761,-2.9765,-3.0037,-3.0187,-3.0375,-3.0509,-3.0519,-3.0692,-3.0681,-3.0769,-3.0814,-3.1068,-3.1164,-3.1047,-3.1479,-3.1395,-3.1425,-3.1408,-3.1437,-3.1458,-3.1431,-3.1009,0,0,0,0,0,-2.9589,-2.9766,-2.9939,-3.0163,-3.0237,-3.036,-3.0468,-3.0513,-3.0672,-3.0736,-3.0862,-3.1018,-3.1204,-3.1325,-3.1505,-3.1785,-3.1831,-3.1905,-3.1927,-3.1944,-3.197,-3.2127,-3.2163,-3.1785,-3.1784,-3.1784,0,0,-2.9667,-2.9802,-2.9909,-3.0171,-3.0292,-3.0476,-3.0413,-3.061,-3.0748,-3.0767,-3.1016,-3.1113,-3.1293,-3.1562,-3.1687,-3.165,-3.2084,-3.1966,-3.1978,-3.1996,-3.2149,-3.2184,-3.2216,-3.1796,-3.1794,-3.1792,0,0,-2.9902,-3.0021,-3.0221,-3.0343,-3.0526,-3.0606,-3.0654,-3.084,-3.0905,-3.1155,-3.1173,-3.1339,-3.1656,-3.1785,-3.1892,-3.2174,-3.2181,-3.223,-3.2347,-3.2499,-3.2528,-3.2555,-3.2659,-3.2694,-3.2254,-3.2255,-3.2255,0,-2.9977,-3.0252,-3.0323,-3.0521,-3.0636,-3.0658,-3.0862,-3.0978,-3.1211,-3.1292,-3.1245,-3.1644,-3.1768,-3.2068,-3.2136,-3.2221,-3.228,-3.2209,-3.2518,-3.2546,-3.2572,-3.2671,-3.271,-3.226,-3.2259,-3.2259,-3.2258,0,-3.0335,-3.0526,-3.0666,-3.0888,-3.1019,-3.1219,-3.1322,-3.1447,-3.1479,-3.1564,-3.1819,-3.1966,-3.2177,-3.2251,-3.2285,-3.2557,-3.2528,-3.2499,-3.2418,-3.2612,-3.2707,-3.2745,-3.2267,-3.2265,-3.2263,-3.2262,0,0,-3.06,-3.0856,-3.0907,-3.1009,-3.1211,-3.1361,-3.1562,-3.1765,-3.1871,-3.2031,-3.2204,-3.247,-3.2444,-3.2566,-3.2614,-3.2747,-3.2964,-3.2702,-3.2708,-3.2748,-3.3274,-3.3297,-3.334,-3.2967,-3.2975,-3.2981,-3.326,0,-3.086,-3.1216,-3.1285,-3.1596,-3.1774,-3.1796,-3.1972,-3.2116,-3.22,-3.2365,-3.2459,-3.2648,-3.2597,-3.2671,-3.2803,-3.2909,-3.3071,-3.289,-3.3133,-3.314,-3.309,-3.339,-3.3415,-3.3672,-3.3297,-3.3304,-3.3308,0,-3.1212,-3.1378,-3.1705,-3.1884,-3.1961,-3.2118,-3.231,-3.2466,-3.2631,-3.2683,-3.2816,-3.285,-3.3062,-3.2967,-3.3261,-3.3136,-3.3239,-3.3306,-3.3318,-3.3347,-3.3239,-3.343,-3.3755,-3.3795,-3.3367,-3.3362,-3.3358,0,-3.1375,-3.168,-3.1916,-3.2002,-3.2215,-3.2325,-3.2419,-3.2576,-3.2694,-3.2862,-3.294,-3.3131,-3.3237,-3.3385,-3.347,-3.3393,-3.3759,-3.3671,-3.3811,-3.3809,-3.3891,-3.3885,-3.4241,-3.3951,-3.395,-3.395,-3.3949,0,-3.1661,-3.1861,-3.1992,-3.2138,-3.2363,-3.244,-3.2662,-3.2756,-3.2895,-3.3061,-3.3091,-3.3246,-3.3347,-3.3517,-3.3585,-3.3819,-3.3866,-3.3916,-3.3933,-3.3916,-3.391,-3.3988,-3.3973,-3.396,-3.3958,-3.3956,-3.3954,0,-3.1883,-3.1978,-3.2237,-3.2417,-3.2466,-3.2625,-3.278,-3.2923,-3.3005,-3.3215,-3.3268,-3.34,-3.3601,-3.3699,-3.395,-3.3996,-3.4262,-3.4265,-3.4207,-3.4214,-3.435,-3.4337,-3.477,-3.4832,-3.4498,-3.4501,-3.4503,0,-3.2061,-3.2215,-3.241,-3.2522,-3.2619,-3.2798,-3.2918,-3.3,-3.3124,-3.3322,-3.3442,-3.3643,-3.381,-3.4131,-3.4251,-3.4443,-3.4453,-3.4591,-3.4483,-3.4461,-3.4459,-3.445,-3.4467,-3.4612,-3.4616,-3.4618,-3.462,0,-3.2367,-3.2406,-3.2576,-3.2764,-3.2905,-3.3057,-3.3207,-3.3297,-3.3403,-3.3541,-3.3746,-3.3874,-3.4129,-3.4331,-3.4531,-3.463,-3.4645,-3.4653,-3.4696,-3.4683,-3.4643,-3.467,-3.4264,-3.4644,-3.4641,-3.464,-3.4639,-3.4638,-3.2576,-3.2714,-3.2873,-3.3062,-3.3182,-3.3321,-3.3464,-3.3563,-3.3735,-3.3948,-3.3985,-3.4204,-3.4364,-3.4634,-3.474,-3.4913,-3.4883,-3.4945,-3.4961,-3.4976,-3.4985,-3.4612,-3.495,-3.4949,-3.4949,-3.4948,-3.4948,0,-3.2886,-3.2988,-3.3161,-3.3368,-3.3517,-3.3513,-3.3678,-3.3804,-3.3995,-3.4142,-3.4304,-3.454,-3.4735,-3.4868,-3.5067,-3.518,-3.5192,-3.523,-3.5225,-3.5248,-3.4999,-3.4943,-3.5217,-3.5217,-3.5217,-3.5217,-3.5217,-3.5217,-3.3065,-3.33,-3.3358,-3.3653,-3.3754,-3.3967,-3.4062,-3.4191,-3.4308,-3.457,-3.4731,-3.4815,-3.4958,-3.5166,-3.5346,-3.538,-3.5453,-3.5492,-3.5527,-3.5293,-3.5265,-3.5238,-3.5186,-3.5507,-3.5507,-3.5761,-3.5764,-3.5765]},{"header":{"parameterUnit":"m.s-1","parameterCategory":1,"la1":30.2991,"la2":30.254,"lo1":-89.0895,"lo2":-89.0444,"dy":0.0017,"dx":0.0017,"nx":28,"ny":28,"refTime":"2025-01-21T09:00:00:Z","depth":0,"parameterNumber":3,"parameterNumberName":"V-component_of_WINDS"},"data":[0,0,0,0,0,0,0,0,0,0,0,0,0,0,0,0,0,0,0,0,0,0,0,0,0,0,0,0,0,0,0,0,0,0,0,0,0,0,0,0,0,0,0,0,0,0,0,0,0,0,0,0,0,0,0,0,0,0,-9.6602,-9.6602,0,-9.6573,-9.6573,-9.6572,-9.6402,-9.6398,-9.6393,-9.639,-9.6362,-9.6365,-9.6368,0,0,0,0,0,0,0,0,0,0,0,0,0,-9.6512,-9.6515,-9.6602,-9.6602,-9.6602,-9.6573,-9.6573,-9.6572,-9.6402,-9.6397,-9.6392,-9.6388,-9.6361,-9.6365,-9.6368,0,0,0,0,0,0,0,0,0,0,0,0,0,-9.6524,-9.6516,-9.6602,-9.6513,-9.6505,-9.6573,-9.6573,-9.6572,-9.6403,-9.6397,-9.6391,-9.6385,-9.636,-9.6364,-9.6369,-9.6521,0,0,-9.6383,-9.6385,0,0,0,0,0,0,0,0,-9.6524,-9.6528,-9.6527,-9.652,-9.651,-9.6485,-9.6531,-9.6555,-9.6405,-9.6442,-9.6389,-9.6382,-9.6408,-9.6408,-9.6416,-9.652,-9.6518,-9.6383,-9.6386,-9.6388,-9.639,0,0,0,0,0,0,0,-9.6523,-9.6528,-9.6591,-9.6527,-9.6517,-9.6475,-9.647,-9.6535,-9.646,-9.6438,-9.6426,-9.6425,-9.6402,-9.6412,-9.6414,-9.6518,-9.6383,-9.6387,-9.639,-9.6392,-9.6744,-9.675,0,0,0,0,0,0,-9.6535,-9.6529,-9.6592,-9.659,-9.6502,-9.6482,-9.6476,-9.6499,-9.6459,-9.6447,-9.643,-9.6417,-9.6407,-9.6409,-9.6413,-9.6587,-9.6388,-9.6393,-9.6395,-9.6737,-9.6745,-9.6752,0,0,0,0,0,0,-9.6533,-9.6542,-9.6593,-9.6556,-9.6559,-9.649,-9.6517,-9.6502,-9.6511,-9.6452,-9.6439,-9.6454,-9.6403,-9.6406,-9.6495,-9.6584,-9.6395,-9.6399,-9.673,-9.674,-9.6749,-9.6938,0,0,0,0,0,0,-9.6532,-9.6542,-9.6599,-9.6558,-9.6562,-9.6676,-9.6523,-9.6506,-9.652,-9.6502,-9.6471,-9.646,-9.6398,-9.6489,-9.65,-9.6587,-9.6402,-9.6721,-9.6734,-9.6746,-9.6923,-9.6953,-9.6978,0,0,0,0,0,-9.6529,-9.6655,-9.6603,-9.6612,-9.6631,-9.6681,-9.6683,-9.6608,-9.6528,-9.6584,-9.6546,-9.6461,-9.6573,-9.6499,-9.651,-9.66,-9.6715,-9.673,-9.6745,-9.6911,-9.6947,-9.6978,0,0,0,0,0,0,-9.6709,-9.6647,-9.659,-9.6706,-9.67,-9.6652,-9.6721,-9.6649,-9.6666,-9.665,-9.6557,-9.6551,-9.6654,-9.6636,-9.6555,-9.6745,-9.6629,-9.6647,-9.6752,-9.6786,-9.6813,-9.6815,-9.6406,0,0,0,0,0,-9.6762,-9.6807,-9.6751,-9.6859,-9.6859,-9.6791,-9.681,-9.6753,-9.6743,-9.674,-9.6708,-9.6703,-9.6736,-9.676,-9.6788,-9.6921,-9.6911,-9.6988,-9.7015,-9.7038,-9.7054,-9.7122,-9.7155,-9.6801,-9.6801,-9.68,0,0,-9.6872,-9.6844,-9.6878,-9.6894,-9.6883,-9.6931,-9.679,-9.6848,-9.6883,-9.6749,-9.683,-9.6807,-9.6795,-9.6906,-9.6953,-9.6894,-9.715,-9.7057,-9.7076,-9.7079,-9.714,-9.7174,-9.7204,-9.6811,-9.6809,-9.6807,0,0,-9.7097,-9.7081,-9.7168,-9.7159,-9.7143,-9.7098,-9.7119,-9.7082,-9.7061,-9.7141,-9.7041,-9.7083,-9.7143,-9.7138,-9.7143,-9.7367,-9.7289,-9.7379,-9.7522,-9.7589,-9.7617,-9.7641,-9.772,-9.7749,-9.7395,-9.7396,-9.7396,0,-9.7236,-9.7304,-9.7222,-9.7286,-9.7296,-9.7176,-9.7264,-9.726,-9.7255,-9.7264,-9.7198,-9.727,-9.7254,-9.7361,-9.7416,-9.7425,-9.7446,-9.7381,-9.7619,-9.7643,-9.7664,-9.7738,-9.7768,-9.7406,-9.7405,-9.7404,-9.7403,0,-9.7475,-9.7525,-9.7597,-9.7594,-9.7612,-9.7688,-9.7618,-9.7646,-9.7588,-9.7549,-9.7632,-9.7608,-9.7629,-9.765,-9.7595,-9.775,-9.7714,-9.7636,-9.7517,-9.771,-9.7778,-9.7806,-9.7422,-9.7418,-9.7415,-9.7412,0,0,-9.7812,-9.7762,-9.779,-9.7786,-9.776,-9.7797,-9.7868,-9.7887,-9.7912,-9.7914,-9.797,-9.8024,-9.795,-9.7957,-9.79,-9.7959,-9.8136,-9.7872,-9.7871,-9.7921,-9.8306,-9.8364,-9.8398,-9.8085,-9.809,-9.8094,-9.8306,0,-9.8027,-9.8143,-9.8071,-9.8198,-9.8242,-9.813,-9.8191,-9.8182,-9.8148,-9.8181,-9.8144,-9.8183,-9.8084,-9.8087,-9.8141,-9.8104,-9.8212,-9.8087,-9.8137,-9.8139,-9.8142,-9.8434,-9.8496,-9.8696,-9.8332,-9.8337,-9.834,0,-9.8292,-9.8303,-9.8435,-9.8399,-9.8415,-9.8471,-9.8482,-9.8516,-9.8503,-9.8474,-9.8482,-9.841,-9.8477,-9.8362,-9.8453,-9.837,-9.8386,-9.8371,-9.8377,-9.8378,-9.825,-9.8441,-9.8759,-9.8789,-9.8381,-9.8378,-9.8375,0,-9.8523,-9.8571,-9.8655,-9.8656,-9.8617,-9.8659,-9.8645,-9.8626,-9.8642,-9.8653,-9.8662,-9.8681,-9.8691,-9.8708,-9.8643,-9.8566,-9.8743,-9.8623,-9.8721,-9.8723,-9.8762,-9.876,-9.9085,-9.8775,-9.8775,-9.8774,-9.8774,0,-9.8769,-9.8854,-9.8758,-9.881,-9.8902,-9.8819,-9.8912,-9.8886,-9.8871,-9.8916,-9.882,-9.8865,-9.8777,-9.8814,-9.8764,-9.8846,-9.8852,-9.8831,-9.8816,-9.8838,-9.8841,-9.8847,-9.883,-9.8782,-9.878,-9.8779,-9.8778,0,-9.9042,-9.8981,-9.9066,-9.9021,-9.9012,-9.9082,-9.9044,-9.909,-9.905,-9.9109,-9.9118,-9.9055,-9.9093,-9.903,-9.9061,-9.9027,-9.9141,-9.9106,-9.9145,-9.9134,-9.9235,-9.9226,-9.9575,-9.9616,-9.9281,-9.9285,-9.9287,0,-9.9202,-9.9264,-9.9227,-9.9249,-9.924,-9.9279,-9.9294,-9.9215,-9.9235,-9.9225,-9.9273,-9.9303,-9.9321,-9.9387,-9.9345,-9.9368,-9.9331,-9.9452,-9.9334,-9.9354,-9.9331,-9.9328,-9.9333,-9.9476,-9.948,-9.9483,-9.9486,0,-9.9493,-9.946,-9.9485,-9.95,-9.952,-9.9529,-9.953,-9.9555,-9.9471,-9.9499,-9.9535,-9.955,-9.958,-9.961,-9.9623,-9.9609,-9.9534,-9.9523,-9.9547,-9.957,-9.9589,-9.9578,-9.921,-9.9515,-9.9512,-9.951,-9.9509,-9.9507,-9.9713,-9.9763,-9.9743,-9.9774,-9.9767,-9.977,-9.9811,-9.9776,-9.9804,-9.9822,-9.9774,-9.9822,-9.9808,-9.9817,-9.9811,-9.9848,-9.9794,-9.9829,-9.9837,-9.9847,-9.9862,-9.9585,-9.985,-9.9849,-9.9848,-9.9847,-9.9847,0,-9.9998,-9.9979,-10.0009,-10.0013,-10.0038,-9.9964,-9.9962,-9.9987,-10.003,-10.0023,-10.0043,-10.0085,-10.0114,-10.0075,-10.0097,-10.0134,-10.01,-10.0142,-10.0138,-10.0136,-9.9909,-9.9886,-10.0169,-10.0169,-10.0169,-10.0169,-10.0169,-10.0169,-10.0148,-10.0228,-10.0193,-10.0268,-10.0249,-10.0293,-10.0298,-10.0301,-10.0295,-10.0345,-10.0368,-10.0342,-10.0322,-10.0341,-10.0365,-10.0352,-10.0365,-10.0419,-10.0395,-10.0183,-10.0152,-10.0122,-10.0099,-10.0423,-10.0423,-10.0617,-10.0619,-10.0621]}]]